TimeEST,TemperatureF,Dew PointF,Humidity,Sea Level PressureIn,VisibilityMPH,Wind Direction,Wind SpeedMPH,Gust SpeedMPH,PrecipitationIn,Events,Conditions,WindDirDegrees,DateUTC
12:15 AM,44.6,42.8,93,30.02,10.0,Calm,Calm,-,N/A,,Clear,0,2013-02-16 05:15:00
12:35 AM,46.4,42.8,87,30.02,10.0,Calm,Calm,-,N/A,,Clear,0,2013-02-16 05:35:00
12:55 AM,46.4,42.8,87,30.02,10.0,Calm,Calm,-,N/A,,Clear,0,2013-02-16 05:55:00
1:15 AM,50.0,42.8,76,30.02,10.0,Calm,Calm,-,N/A,,Clear,0,2013-02-16 06:15:00
1:35 AM,51.8,41.0,67,30.01,10.0,Calm,Calm,-,N/A,,Clear,0,2013-02-16 06:35:00
1:55 AM,51.8,41.0,67,30.01,10.0,Calm,Calm,-,N/A,,Clear,0,2013-02-16 06:55:00
2:15 AM,50.0,42.8,76,30.01,10.0,NNW,4.6,-,N/A,,Clear,340,2013-02-16 07:15:00
2:35 AM,50.0,42.8,76,30.00,10.0,NNW,3.5,-,N/A,,Clear,340,2013-02-16 07:35:00
2:55 AM,50.0,42.8,76,30.00,10.0,Calm,Calm,-,N/A,,Clear,0,2013-02-16 07:55:00
3:15 AM,48.2,41.0,76,30.00,10.0,Calm,Calm,-,N/A,,Clear,0,2013-02-16 08:15:00
3:35 AM,48.2,41.0,76,30.00,10.0,NNW,3.5,-,N/A,,Clear,340,2013-02-16 08:35:00
3:55 AM,48.2,41.0,76,30.00,10.0,NNW,4.6,-,N/A,,Clear,340,2013-02-16 08:55:00
4:15 AM,46.4,41.0,81,30.00,10.0,NNW,4.6,-,N/A,,Clear,340,2013-02-16 09:15:00
4:35 AM,46.4,41.0,81,30.00,10.0,Calm,Calm,-,N/A,,Clear,0,2013-02-16 09:35:00
4:55 AM,46.4,41.0,81,30.00,10.0,Calm,Calm,-,N/A,,Clear,0,2013-02-16 09:55:00
5:15 AM,46.4,41.0,81,30.01,10.0,Calm,Calm,-,N/A,,Mostly Cloudy,0,2013-02-16 10:15:00
5:35 AM,46.4,41.0,81,30.01,10.0,Calm,Calm,-,N/A,,Overcast,0,2013-02-16 10:35:00
5:55 AM,46.4,42.8,87,30.01,10.0,Calm,Calm,-,N/A,,Overcast,0,2013-02-16 10:55:00
6:15 AM,46.4,42.8,87,30.01,10.0,Calm,Calm,-,N/A,,Overcast,0,2013-02-16 11:15:00
6:35 AM,46.4,41.0,81,30.02,10.0,Calm,Calm,-,N/A,,Overcast,0,2013-02-16 11:35:00
6:55 AM,46.4,42.8,87,30.02,10.0,Calm,Calm,-,N/A,,Light Drizzle,0,2013-02-16 11:55:00
7:15 AM,46.4,41.0,81,30.04,10.0,Calm,Calm,-,N/A,Rain,Rain,0,2013-02-16 12:15:00
7:35 AM,46.4,41.0,81,30.05,10.0,Calm,Calm,-,N/A,,Drizzle,0,2013-02-16 12:35:00
7:55 AM,46.4,42.8,87,30.06,10.0,NW,4.6,-,N/A,Rain,Rain,310,2013-02-16 12:55:00
8:15 AM,46.4,42.8,87,30.07,10.0,Calm,Calm,-,N/A,Rain,Rain,0,2013-02-16 13:15:00
8:35 AM,46.4,42.8,87,30.07,10.0,Calm,Calm,-,N/A,,Drizzle,0,2013-02-16 13:35:00
8:55 AM,46.4,42.8,87,30.07,10.0,Calm,Calm,-,N/A,,Light Drizzle,0,2013-02-16 13:55:00
9:15 AM,46.4,42.8,87,30.07,10.0,West,4.6,-,N/A,,Overcast,280,2013-02-16 14:15:00
9:35 AM,46.4,41.0,81,30.05,10.0,Calm,Calm,-,N/A,,Overcast,0,2013-02-16 14:35:00
9:55 AM,48.2,41.0,76,30.06,10.0,Calm,Calm,-,N/A,,Overcast,0,2013-02-16 14:55:00
10:15 AM,48.2,41.0,76,30.06,10.0,West,4.6,-,N/A,,Overcast,280,2013-02-16 15:15:00
10:35 AM,50.0,42.8,76,30.06,10.0,Calm,Calm,-,N/A,,Scattered Clouds,0,2013-02-16 15:35:00
1:35 PM,53.6,32.0,44,30.03,10.0,NW,16.1,27.6,N/A,,Mostly Cloudy,320,2013-02-16 18:35:00
1:55 PM,51.8,30.2,44,30.04,10.0,WNW,10.4,23.0,N/A,,Mostly Cloudy,300,2013-02-16 18:55:00
2:15 PM,51.8,30.2,44,30.04,10.0,NW,12.7,19.6,N/A,,Mostly Cloudy,310,2013-02-16 19:15:00
2:35 PM,53.6,30.2,41,30.03,10.0,NW,11.5,23.0,N/A,,Mostly Cloudy,310,2013-02-16 19:35:00
2:55 PM,51.8,28.4,41,30.04,10.0,NW,13.8,23.0,N/A,,Mostly Cloudy,320,2013-02-16 19:55:00
3:15 PM,50.0,28.4,43,30.04,10.0,WNW,16.1,25.3,N/A,,Mostly Cloudy,290,2013-02-16 20:15:00
3:35 PM,51.8,28.4,41,30.04,10.0,WNW,11.5,20.7,N/A,,Mostly Cloudy,290,2013-02-16 20:35:00
3:55 PM,51.8,26.6,38,30.05,10.0,NNW,13.8,23.0,N/A,,Mostly Cloudy,330,2013-02-16 20:55:00
4:15 PM,51.8,23.0,33,30.05,10.0,WNW,15.0,27.6,N/A,,Mostly Cloudy,300,2013-02-16 21:15:00
4:35 PM,50.0,24.8,37,30.06,10.0,NW,12.7,25.3,N/A,,Scattered Clouds,310,2013-02-16 21:35:00
4:55 PM,50.0,23.0,35,30.07,10.0,NNW,11.5,20.7,N/A,,Scattered Clouds,330,2013-02-16 21:55:00
5:15 PM,50.0,21.2,32,30.07,10.0,NNW,13.8,19.6,N/A,,Scattered Clouds,330,2013-02-16 22:15:00
5:35 PM,48.2,21.2,34,30.08,10.0,NW,10.4,17.3,N/A,,Scattered Clouds,320,2013-02-16 22:35:00
5:55 PM,48.2,21.2,34,30.08,10.0,NW,11.5,17.3,N/A,,Clear,320,2013-02-16 22:55:00
6:15 PM,46.4,21.2,37,30.09,10.0,NNW,5.8,-,N/A,,Scattered Clouds,330,2013-02-16 23:15:00
6:35 PM,46.4,21.2,37,30.10,10.0,NW,6.9,18.4,N/A,,Scattered Clouds,320,2013-02-16 23:35:00
6:55 PM,44.6,21.2,39,30.11,10.0,NNW,8.1,-,N/A,,Clear,330,2013-02-16 23:55:00
7:15 PM,44.6,21.2,39,30.12,10.0,NW,6.9,-,N/A,,Clear,320,2013-02-17 00:15:00
7:35 PM,44.6,21.2,39,30.13,10.0,Calm,Calm,-,N/A,,Clear,0,2013-02-17 00:35:00
7:55 PM,44.6,21.2,39,30.14,10.0,Calm,Calm,-,N/A,,Clear,0,2013-02-17 00:55:00
8:15 PM,42.8,21.2,42,30.15,10.0,Calm,Calm,-,N/A,,Clear,0,2013-02-17 01:15:00
8:35 PM,42.8,21.2,42,30.17,10.0,Calm,Calm,-,N/A,,Clear,0,2013-02-17 01:35:00
8:55 PM,41.0,21.2,45,30.17,10.0,Calm,Calm,-,N/A,,Clear,0,2013-02-17 01:55:00
9:15 PM,41.0,23.0,49,30.18,10.0,Calm,Calm,-,N/A,,Clear,0,2013-02-17 02:15:00
9:35 PM,41.0,23.0,49,30.20,10.0,Calm,Calm,-,N/A,,Clear,0,2013-02-17 02:35:00
9:55 PM,41.0,23.0,49,30.20,10.0,Calm,Calm,-,N/A,,Clear,0,2013-02-17 02:55:00
10:15 PM,39.2,23.0,52,30.22,10.0,Calm,Calm,-,N/A,,Clear,0,2013-02-17 03:15:00
10:35 PM,39.2,23.0,52,30.22,10.0,Calm,Calm,-,N/A,,Clear,0,2013-02-17 03:35:00
10:55 PM,37.4,24.8,60,30.22,10.0,Calm,Calm,-,N/A,,Clear,0,2013-02-17 03:55:00
11:15 PM,37.4,23.0,56,30.23,10.0,Calm,Calm,-,N/A,,Clear,0,2013-02-17 04:15:00
11:35 PM,37.4,23.0,56,30.23,10.0,Calm,Calm,-,N/A,,Clear,0,2013-02-17 04:35:00
11:55 PM,37.4,24.8,60,30.23,10.0,Calm,Calm,-,N/A,,Clear,0,2013-02-17 04:55:00